Home > Weather > Surat > Past weeks

Flag for India Past Weather in Surat, Gujarat, India — Yesterday and Last 2 Weeks

Now
82 °F

Partly cloudy.


Feels Like: 91 °F
Forecast: 78 / 85 °F
Wind: 7 mph from West

Location: Ahmadabad Airport

Current Time: Jul 30, 2016 at 5:13:46 AM

Latest Report: Jul 30, 2016 at 4:30 AM


Visibility: 2 mi

Pressure: 29.59 "Hg

Humidity: 84%

Dew Point: 77 °F

Location of SuratLocation

Past Weather in Surat — Graph

°F

Surat Temperature Yesterday

Maximum temperature yesterday: 88 °F (at 12:00 PM)
Minimum temperature yesterday: 81 °F (at 12:00 AM)
Average temperature yesterday: 84 °F

High & Low Weather Summary for the Past Weeks

 TemperatureHumidityPressure
High95 °F (Jul 22, 3:00 PM)94% (Jul 19, 10:30 AM)29.74 "Hg (Jul 19, 10:30 AM)
Low79 °F (Jul 19, 10:00 AM)47% (Jul 22, 5:30 PM)29.50 "Hg (Jul 22, 5:30 PM)
Average85 °F76%29.63 "Hg
* Reported Jul 15 3:30 AM — Jul 30 4:00 AM, Surat, Weather by CustomWeather, © 2016

Note: Actual official high and low records may vary slightly from our data, if they occured in-between our weather recording intervals... More about our weather records

Advertising

Surat Weather History for the Previous 24 Hours

Scroll right to see more
 ConditionsComfort  
Time TempWeatherWind HumidityBarometerVisibility
4:00 AM
Sat, Jul 30
82 °FPartly cloudy.7 mph84%29.59 "Hg2 mi
3:30 AM81 °FPartly cloudy.6 mph89%29.59 "Hg2 mi
3:00 AM81 °FPartly cloudy.6 mph89%29.59 "Hg2 mi
2:30 AM81 °FPartly cloudy.6 mph89%29.59 "Hg2 mi
2:00 AM81 °FPartly cloudy.6 mph89%29.59 "Hg2 mi
1:30 AM81 °FPartly cloudy.6 mph89%29.62 "Hg2 mi
1:00 AM82 °FPartly cloudy.7 mph84%29.62 "Hg2 mi
12:30 AM82 °FPartly cloudy.6 mph84%29.62 "Hg2 mi
12:00 AM82 °FPartly cloudy.6 mph84%29.62 "Hg2 mi
11:30 PM
Fri, Jul 29
82 °FPartly cloudy.6 mph84%29.62 "Hg2 mi
11:00 PM82 °FPartly cloudy.2 mph84%29.65 "Hg2 mi
10:30 PM82 °FPartly cloudy.3 mph84%29.65 "Hg2 mi
10:00 PM82 °FPartly cloudy.5 mph84%29.65 "Hg2 mi
9:30 PM84 °FPartly cloudy.3 mph79%29.65 "Hg2 mi
9:00 PM84 °FPartly cloudy.7 mph79%29.62 "Hg2 mi
8:00 PM84 °FPartly cloudy.8 mph79%29.59 "Hg2 mi
7:30 PM86 °FBroken clouds.8 mph75%29.59 "Hg2 mi
7:00 PM86 °FBroken clouds.8 mph70%29.56 "Hg2 mi
6:30 PM86 °FBroken clouds.6 mph75%29.56 "Hg3 mi
6:00 PM86 °FBroken clouds.7 mph75%29.56 "Hg3 mi
5:30 PM88 °FBroken clouds.7 mph70%29.56 "Hg3 mi
5:00 PM88 °FBroken clouds.7 mph66%29.56 "Hg3 mi
4:30 PM88 °FBroken clouds.7 mph66%29.56 "Hg3 mi
4:00 PM88 °FBroken clouds.5 mph70%29.56 "Hg3 mi
3:30 PM88 °FBroken clouds.6 mph70%29.56 "Hg3 mi
3:00 PM88 °FBroken clouds.7 mph66%29.59 "Hg3 mi
2:30 PM88 °FBroken clouds.7 mph66%29.59 "Hg3 mi
2:00 PM86 °FBroken clouds.6 mph70%29.62 "Hg3 mi
1:30 PM86 °FBroken clouds.5 mph75%29.65 "Hg3 mi
1:00 PM86 °FPartly sunny.5 mph75%29.65 "Hg3 mi
12:30 PM86 °FPartly sunny.5 mph75%29.65 "Hg3 mi
12:00 PM88 °FPartly sunny.5 mph70%29.65 "Hg3 mi
11:30 AM86 °FPartly sunny.8 mph75%29.68 "Hg3 mi
11:00 AM86 °FPartly sunny.7 mph75%29.68 "Hg3 mi
10:30 AM84 °FPartly sunny.7 mph79%29.68 "Hg3 mi
10:00 AM84 °FPartly sunny.7 mph79%29.68 "Hg3 mi
9:30 AM82 °FPartly sunny.6 mph84%29.68 "Hg3 mi
9:00 AM82 °FPartly sunny.8 mph84%29.68 "Hg2 mi
8:30 AM82 °FBroken clouds.6 mph84%29.65 "Hg2 mi
8:00 AM82 °FFog.8 mph84%29.65 "Hg2 mi
7:30 AM81 °FFog.6 mph89%29.65 "Hg2 mi
7:00 AM81 °FFog.6 mph89%29.65 "Hg2 mi
6:30 AM81 °FPartly cloudy.6 mph84%29.62 "Hg2 mi
6:00 AM81 °FPartly cloudy.5 mph84%29.62 "Hg2 mi
5:30 AM81 °FPartly cloudy.6 mph84%29.62 "Hg2 mi
5:00 AM81 °FPartly cloudy.3 mph84%29.62 "Hg2 mi
Weather by CustomWeather, © 2016

See weather overviewHow to use our weather pages